Back to catalog

CSTP-3.10

AliveScienceSSO
NORAD 67259·PAYLOAD·🇷🇺 Russia
This satellite name has not been confirmed by official sources yet.

Launched Dec 28, 2025 from Vostochny Cosmodrome

Loading…

Next Passes (next 24 hours)

TLE

FreshSource: Space-Track

Epoch: Sep 14, 2026, 11:04 UTC

1 67259U 25313M   26257.46140202  .00009065  00000-0  35048-3 0  9997
2 67259  97.3892 331.3388 0014637  51.4442 308.8106 15.26354647 39572

Track CSTP-3.10 in real time with AllMySat

Download on the App Store